DW4782 Asprovalta GR current weather conditions

sailwx.info

Air temperature 18.9° C
Dewpoint 17.7° C

Last reported at 2014-Sep-03 01:40 UTC.
Time now 2014-Sep-03 02:18 UTC

Location: N 40°43' E 023°43'.
View on Google Maps.

See reports from other nearby stations

  
Tides and Currents Weather Stations Pressure Air Temp Water Temp Dewpoint Dewpoint Depression Visibility Wind Speed Wind Dir Waves Ship Positions
date/time (UTC)wind fromknots sea level pressurealtimeterstation pressurevisibilityair tempwater tempwave heightnotes
2014-Sep-03 01:40 18.9
2014-Sep-03 01:30 18.9
2014-Sep-03 01:20 18.9
2014-Sep-03 01:10 18.9
2014-Sep-03 01:00 18.9
2014-Sep-03 00:50 18.9
2014-Sep-03 00:40 18.9
2014-Sep-03 00:30 18.9
2014-Sep-03 00:20 18.9
2014-Sep-03 00:10 18.9
2014-Sep-03 00:00 19.4
2014-Sep-02 23:50 294 19.4
2014-Sep-02 23:40 271 19.4
2014-Sep-02 23:30 279 19.4
2014-Sep-02 23:20 293 19.4
2014-Sep-02 23:10 20.0
2014-Sep-02 23:00 20.0
2014-Sep-02 22:50 20.0
2014-Sep-02 22:40 20.0
2014-Sep-02 22:30 309 20.0
2014-Sep-02 22:20 329 0 gusting 0 20.0
2014-Sep-02 22:00 176 20.0
2014-Sep-02 21:50 259 0 gusting 0 19.4
2014-Sep-02 21:40 260 20.0
2014-Sep-02 21:30 243 20.0
2014-Sep-02 21:20 257 20.0
2014-Sep-02 20:50 293 20.6
2014-Sep-02 20:40 292 20.6
2014-Sep-02 20:30 301 20.6
2014-Sep-02 20:20 20.6
2014-Sep-02 20:00 314 20.6
2014-Sep-02 19:50 20.6
2014-Sep-02 19:40 313 20.6
2014-Sep-02 19:10 047 20.6
2014-Sep-02 19:00 027 0 gusting 0 20.6
2014-Sep-02 18:50 344 0 gusting 0 20.6
2014-Sep-02 18:30 045 0 gusting 0 21.1
2014-Sep-02 18:20 043 21.1
2014-Sep-02 18:10 066 0 gusting 0 21.1
2014-Sep-02 18:00 118 21.7
2014-Sep-02 17:50 153 0 gusting 3 21.7
2014-Sep-02 17:30 337 1 gusting 6 22.2
2014-Sep-02 17:20 327 0 gusting 3 22.8
2014-Sep-02 17:00 329 1 gusting 2 23.3
2014-Sep-02 16:50 330 0 gusting 3 23.9
2014-Sep-02 16:40 352 23.9
2014-Sep-02 16:30 061 24.4
2014-Sep-02 16:20 072 24.4
2014-Sep-02 16:10 24.4
2014-Sep-02 16:00 084 0 gusting 0 25.0
2014-Sep-02 15:50 021 1 gusting 3 25.0
2014-Sep-02 15:40 078 2 gusting 6 25.6
2014-Sep-02 15:30 081 2 gusting 7 25.6
2014-Sep-02 15:20 125 2 gusting 8 25.6
2014-Sep-02 15:10 139 2 gusting 4 26.1
2014-Sep-02 15:00 091 1 gusting 5 26.1
2014-Sep-02 14:50 080 1 gusting 4 26.1
2014-Sep-02 14:40 100 2 gusting 4 26.1
2014-Sep-02 14:20 099 1 gusting 4 26.7
2014-Sep-02 14:10 081 2 gusting 4 26.7
2014-Sep-02 14:00 090 2 gusting 6 26.7
2014-Sep-02 13:50 101 3 gusting 6 26.7
2014-Sep-02 13:30 090 2 gusting 6 26.7
2014-Sep-02 13:20 118 2 gusting 7 26.7
2014-Sep-02 13:10 099 2 gusting 7 26.1
2014-Sep-02 12:40 103 1 gusting 6 25.6
2014-Sep-02 12:30 105 1 gusting 5 25.6
2014-Sep-02 12:10 099 0 gusting 5 25.6
2014-Sep-02 12:00 124 3 gusting 6 26.1
2014-Sep-02 11:40 114 3 gusting 7 26.1
2014-Sep-02 11:30 123 3 gusting 7 26.1
2014-Sep-02 11:20 113 3 gusting 7 26.7
2014-Sep-02 11:10 112 3 gusting 7 26.7
2014-Sep-02 11:00 113 3 gusting 6 26.7
2014-Sep-02 10:50 142 4 gusting 5 27.2
2014-Sep-02 10:30 119 4 gusting 10 27.8
2014-Sep-02 10:20 134 4 gusting 13 27.8
2014-Sep-02 10:10 108 4 gusting 6 28.3
2014-Sep-02 10:00 103 4 gusting 8 28.3
2014-Sep-02 09:50 090 4 gusting 7 27.8
2014-Sep-02 09:40 134 4 gusting 8 27.8
2014-Sep-02 09:30 099 3 gusting 8 27.2
2014-Sep-02 09:20 098 3 gusting 8 26.7
2014-Sep-02 09:10 108 4 gusting 6 27.2
2014-Sep-02 09:00 107 3 gusting 9 27.8
2014-Sep-02 08:40 090 4 gusting 8 28.3
2014-Sep-02 08:30 107 4 gusting 7 28.3
2014-Sep-02 08:20 109 4 gusting 8 27.8
2014-Sep-02 08:10 116 3 gusting 6 27.2
2014-Sep-02 08:00 098 3 gusting 5 26.7
2014-Sep-02 07:50 081 2 gusting 6 26.1
2014-Sep-02 07:30 079 3 gusting 6 26.7
2014-Sep-02 07:20 080 2 gusting 7 26.7
2014-Sep-02 07:00 057 3 gusting 6 26.7
2014-Sep-02 06:50 068 3 gusting 7 26.7
2014-Sep-02 06:30 062 4 gusting 7 26.7
2014-Sep-02 06:20 054 3 gusting 8 26.1
2014-Sep-02 06:10 031 2 gusting 8 25.6
2014-Sep-02 06:00 060 2 gusting 5 25.0
2014-Sep-02 05:50 044 2 gusting 6 24.4
2014-Sep-02 05:40 090 1 gusting 4 24.4
2014-Sep-02 05:30 032 1 gusting 1 23.9
2014-Sep-02 05:20 013 1 gusting 3 23.9
2014-Sep-02 05:00 001 2 gusting 6 22.8
2014-Sep-02 04:40 351 1 gusting 4 22.2
2014-Sep-02 04:30 004 2 gusting 4 21.7
2014-Sep-02 04:20 357 1 gusting 4 21.7
2014-Sep-02 04:10 019 1 gusting 4 21.7
2014-Sep-02 03:50 346 1 gusting 2 21.1
2014-Sep-02 03:40 336 0 gusting 3 21.1
2014-Sep-02 03:30 333 0 gusting 1 21.1
2014-Sep-02 03:20 337 1 gusting 3 21.1
2014-Sep-02 03:10 332 1 gusting 3 20.6
2014-Sep-02 03:00 328 0 gusting 3 20.6
2014-Sep-02 02:40 338 0 gusting 2 20.6
2014-Sep-02 02:30 348 0 gusting 1 20.6
2014-Sep-02 02:20 343 20.6
2014-Sep-02 02:10 334 20.6
2014-Sep-02 02:00 20.6
2014-Sep-02 01:50 21.1
2014-Sep-02 01:40 21.1
2014-Sep-02 01:30 21.1
2014-Sep-02 01:20 21.7
2014-Sep-02 01:10 21.7
2014-Sep-02 01:00 22.2
2014-Sep-02 00:50 22.2
2014-Sep-02 00:40 334 22.2
2014-Sep-02 00:30 327 0 gusting 2 22.2
2014-Sep-02 00:20 316 22.2
2014-Sep-02 00:10 22.2
2014-Sep-02 00:00 316 22.2
2014-Sep-01 23:50 316 22.2
2014-Sep-01 23:40 316 22.2
2014-Sep-01 23:30 316 22.2
2014-Sep-01 23:20 316 22.2
2014-Sep-01 23:10 318 0 gusting 2 22.2
2014-Sep-01 23:00 329 0 gusting 2 22.2
2014-Sep-01 22:40 22.2
2014-Sep-01 22:30 317 0 gusting 2 22.2
2014-Sep-01 22:10 22.2
2014-Sep-01 22:00 22.8
2014-Sep-01 21:50 314 22.8
2014-Sep-01 21:40 22.8
2014-Sep-01 21:30 313 22.8
2014-Sep-01 21:20 313 23.3
2014-Sep-01 21:00 322 0 gusting 3 23.3
2014-Sep-01 20:50 23.3
2014-Sep-01 20:40 316 0 gusting 2 23.3
2014-Sep-01 20:30 018 23.3
2014-Sep-01 20:20 032 0 gusting 1 23.3
2014-Sep-01 20:00 331 0 gusting 2 23.3
2014-Sep-01 19:50 328 0 gusting 1 23.9
2014-Sep-01 19:40 321 23.9
2014-Sep-01 19:30 23.9
2014-Sep-01 19:20 321 23.9
2014-Sep-01 19:00 24.4
2014-Sep-01 18:50 320 24.4
2014-Sep-01 18:40 319 0 gusting 1 24.4
2014-Sep-01 18:30 320 0 gusting 1 24.4
2014-Sep-01 18:20 327 0 gusting 1 24.4
2014-Sep-01 18:10 312 0 gusting 2 25.0
2014-Sep-01 18:00 324 0 gusting 3 25.0
2014-Sep-01 17:40 336 0 gusting 2 25.0
2014-Sep-01 17:30 333 1 gusting 3 25.6
2014-Sep-01 17:20 357 1 gusting 3 25.6
2014-Sep-01 17:10 316 1 gusting 5 25.6
2014-Sep-01 17:00 350 1 gusting 2 26.1
2014-Sep-01 16:50 343 0 gusting 1 26.1
2014-Sep-01 16:30 027 0 gusting 0 26.7
2014-Sep-01 16:20 050 0 gusting 0 26.7
2014-Sep-01 16:10 014 27.2
2014-Sep-01 16:00 049 0 gusting 2 27.2
2014-Sep-01 15:50 045 1 gusting 3 27.8
2014-Sep-01 15:40 091 0 gusting 4 27.8
2014-Sep-01 15:20 025 1 gusting 4 28.3
2014-Sep-01 15:10 073 1 gusting 6 28.3
2014-Sep-01 15:00 048 1 gusting 3 28.3
2014-Sep-01 14:50 056 2 gusting 6 28.3
2014-Sep-01 14:40 099 2 gusting 6 28.3
2014-Sep-01 14:30 067 3 gusting 6 28.3
2014-Sep-01 14:20 072 2 gusting 5 28.9
2014-Sep-01 14:10 067 2 gusting 5 28.9
2014-Sep-01 14:00 079 2 gusting 7 28.9
2014-Sep-01 13:50 101 3 gusting 6 28.3
2014-Sep-01 13:40 081 3 gusting 6 28.9
2014-Sep-01 13:30 085 3 gusting 6 28.9
2014-Sep-01 13:20 089 3 gusting 7 28.9
2014-Sep-01 13:10 107 2 gusting 6 29.4
2014-Sep-01 13:00 125 1 gusting 4 29.4
2014-Sep-01 12:50 099 2 gusting 6 28.9
2014-Sep-01 12:40 096 2 gusting 6 28.9
2014-Sep-01 12:30 107 2 gusting 6 28.9
2014-Sep-01 12:20 097 2 gusting 6 28.9
2014-Sep-01 12:10 091 2 gusting 6 29.4
2014-Sep-01 12:00 095 2 gusting 6 29.4
2014-Sep-01 11:50 118 2 gusting 6 29.4
2014-Sep-01 11:40 124 2 gusting 7 29.4
2014-Sep-01 11:30 116 2 gusting 5 29.4
2014-Sep-01 11:20 090 2 gusting 5 28.9
2014-Sep-01 11:10 135 2 gusting 6 29.4
2014-Sep-01 10:50 114 2 gusting 6 28.9
2014-Sep-01 10:40 127 2 gusting 4 28.9
2014-Sep-01 10:30 143 2 gusting 4 28.9
2014-Sep-01 10:20 111 3 gusting 6 28.9
2014-Sep-01 10:10 139 3 gusting 6 28.9
2014-Sep-01 10:00 118 2 gusting 6 28.9
2014-Sep-01 09:40 079 1 gusting 4 28.3
2014-Sep-01 09:30 092 1 gusting 4 28.3
2014-Sep-01 09:20 075 1 gusting 4 27.8
2014-Sep-01 09:10 119 1 gusting 4 27.8
2014-Sep-01 09:00 092 0 gusting 4 27.2
2014-Sep-01 08:50 094 1 gusting 3 27.2
2014-Sep-01 08:40 104 1 gusting 3 27.2
2014-Sep-01 08:30 085 1 gusting 4 27.2
2014-Sep-01 08:20 050 1 gusting 5 27.2
2014-Sep-01 08:00 107 1 gusting 5 27.2
2014-Sep-01 07:50 089 0 gusting 4 27.2
2014-Sep-01 07:40 090 0 gusting 2 27.2
2014-Sep-01 07:30 088 0 gusting 2 27.8
2014-Sep-01 07:10 132 0 gusting 3 27.8
2014-Sep-01 07:00 047 0 gusting 3 27.2
2014-Sep-01 06:50 089 0 gusting 3 26.7
2014-Sep-01 06:30 134 25.0
2014-Sep-01 06:20 150 24.4
2014-Sep-01 06:10 150 23.9
2014-Sep-01 05:50 22.8
2014-Sep-01 05:40 22.2
2014-Sep-01 05:30 21.7
2014-Sep-01 05:20 21.1
2014-Sep-01 04:50 20.0
2014-Sep-01 04:40 267 19.4
2014-Sep-01 04:30 267 19.4
2014-Sep-01 04:00 269 19.4
2014-Sep-01 03:50 20.0
2014-Sep-01 03:30 270 20.0
2014-Sep-01 03:20 281 20.0
2014-Sep-01 03:10 277 0 gusting 1 20.0
2014-Sep-01 03:00 269 0 gusting 2 19.4
2014-Sep-01 02:40 282 20.0
2014-Sep-01 02:30 20.0
2014-Sep-01 02:20 20.6
2014-Sep-01 02:10 285 20.6
2014-Sep-01 02:00 283 20.6